Flag for Germany Weather past 2 weeks in Herne, North Rhine-Westphalia, Germany

Now
68 °F

Scattered clouds.


Feels Like: 68 °F
Forecast: 64 / 89 °F
Wind: 5 mph from East

Location: Dortmund / Wickede

Current Time: Aug 29, 2015 at 12:30:37 PM

Latest Report: Aug 29, 2015 at 11:50 AM


Visibility: N/A

Pressure: 30.21 "Hg

Humidity: 53%

Dew point: 50 °F

Location of HerneLocation

Historic Weather in Herne — Graph

°F

Herne temperature yesterday

Maximum temperature yesterday: 68 °F (at 4:20 PM)
Minimum temperature yesterday: 54 °F (at 6:50 AM)
Average temperature yesterday: 62 °F

Past Weeks' High & Low Weather Summary

 TemperatureHumidityPressure
High81 °F (Aug 14, 5:20 PM)94% (Aug 16, 6:20 AM)30.24 "Hg (Aug 16, 6:20 AM)
Low50 °F (Aug 19, 5:20 AM)26% (Aug 22, 4:50 PM)29.56 "Hg (Aug 24, 2:50 PM)
Average65 °F65%29.94 "Hg
* Reported Aug 14 11:20 AM — Aug 29 11:20 AM, Herne, Weather by CustomWeather, © 2015

Note: Actual official high and low records may vary slightly from our data, if they occured in-between our weather recording intervals... More about our weather records

Advertising

Herne weather history for previous 24 hours

 ConditionsComfort  
Time TempWeatherWind HumidityBarometerVisibility
11:20 AM
Sat, Aug 29
66 °FScattered clouds.3 mph60%30.21 "HgN/A
10:50 AM66 °FPassing clouds.3 mph64%30.21 "HgN/A
9:20 AM61 °FPassing clouds.5 mph72%30.21 "HgN/A
8:50 AM57 °FSunny.8 mph77%30.21 "Hg10 mi
7:50 AM54 °FSunny.12 mph82%30.18 "Hg10 mi
7:20 AM52 °FClear.8 mph88%30.21 "Hg10 mi
6:50 AM52 °FClear.8 mph88%30.18 "Hg10 mi
6:20 AM52 °FClear.8 mph88%30.18 "Hg10 mi
5:50 AM52 °FClear.10 mph88%30.18 "Hg10 mi
10:50 PM
Fri, Aug 28
57 °FClear.8 mph77%30.15 "Hg10 mi
10:20 PM57 °FClear.6 mph72%30.15 "Hg10 mi
9:50 PM61 °FClear.6 mph72%30.15 "Hg10 mi
9:20 PM59 °FSunny.8 mph72%30.12 "Hg10 mi
8:50 PM59 °FSunny.5 mph77%30.12 "Hg10 mi
8:20 PM63 °FSunny.5 mph68%30.12 "Hg10 mi
7:50 PM64 °FSunny.5 mph60%30.12 "Hg10 mi
7:20 PM66 °FPassing clouds.6 mph56%30.09 "HgN/A
6:50 PM66 °FPassing clouds.5 mph56%30.09 "HgN/A
6:20 PM68 °FPassing clouds.7 mph56%30.09 "HgN/A
5:50 PM66 °FPassing clouds.8 mph56%30.09 "HgN/A
5:20 PM68 °FScattered clouds.5 mph56%30.09 "HgN/A
4:50 PM68 °FScattered clouds.5 mph53%30.09 "HgN/A
4:20 PM68 °FScattered clouds.6 mph53%30.09 "HgN/A
3:50 PM66 °FScattered clouds.9 mph56%30.09 "HgN/A
3:20 PM66 °FScattered clouds.9 mph52%30.07 "HgN/A
2:50 PM66 °FScattered clouds.9 mph56%30.07 "HgN/A
2:20 PM64 °FScattered clouds.8 mph64%30.07 "HgN/A
1:50 PM66 °FScattered clouds.5 mph56%30.07 "HgN/A
1:20 PM64 °FPassing clouds.7 mph64%30.07 "HgN/A
12:50 PM64 °FScattered clouds.9 mph60%30.07 "HgN/A
12:20 PM64 °FPassing clouds.6 mph64%30.07 "HgN/A
Weather by CustomWeather, © 2015

See weather overviewHow to use our weather pages